Monroe, WI

7:19 AM CST on December 11, 2016 (GMT -0600)
Monroe Municipal

Weather History for KEFT - August, 2013

Change the Weather History Date:

Tuesday, August 13, 2013

  Actual Average Record
Temperature  
Mean Temperature 62 °F -  
Max Temperature 71 °F 80 °F 84 °F (2003)
Min Temperature 54 °F 55 °F 23 °F (1998)
Degree Days  
Heating Degree Days 3    
Growing Degree Days 12 (Base 50)    
Moisture  
Dew Point 49 °F    
Average Humidity 63    
Maximum Humidity 100    
Minimum Humidity 38    
Precipitation  
Precipitation 0.00 in - - ()
Sea Level Pressure  
Sea Level Pressure 30.10 in    
Wind  
Wind Speed 9 mph (North)    
Max Wind Speed 16 mph    
Max Gust Speed 22 mph    
Visibility 10 miles    
Events      
Averages and records for this station are not official NWS values.
T = Trace of Precipitation, MM = Missing Value Source: NWS Daily Summary

Daily Weather History Graph

Daily Weather History Graph

Search for Another Location

Airport or City:

Trip Planner

Search our weather history database for the weather conditions in past years. The results will help you decide how hot, cold, wet, or windy it might be!

Date:

Astronomy

Aug. 13, 2013 Rise Set
Actual Time 6:03 AM CDT 8:02 PM CDT
Civil Twilight 5:32 AM CDT 8:32 PM CDT
Nautical Twilight 4:54 AM CDT 9:10 PM CDT
Astronomical Twilight 4:14 AM CDT 9:50 PM CDT
Moon 1:08 PM CDT (8/13) 11:26 PM CDT (8/13)
Length of Visible Light 15h 00m
Length of Day
13h 59m
Waxing Crescent, 42% of the Moon is Illuminated
Aug 13
Waxing Crescent
Aug 14
First Quarter
Aug 20
Full
Aug 28
Last Quarter
Sep 5
New

Hourly Weather History & Observations

Time (CDT) Temp. Dew Point Humidity Pressure Visibility Wind Dir Wind Speed Gust Speed Precip Events Conditions
12:15 AM 65.1 °F 54.7 °F 69% 29.99 in 10.0 mi NNW 6.9 mph - N/A   Clear
12:35 AM 64.9 °F 54.7 °F 69% 29.99 in 10.0 mi NNW 8.1 mph - N/A   Clear
12:55 AM 64.8 °F 54.5 °F 69% 30.00 in 10.0 mi North 8.1 mph - N/A   Clear
1:15 AM 63.5 °F 54.7 °F 73% 30.00 in 10.0 mi North 6.9 mph - N/A   Clear
1:35 AM 60.8 °F 59.5 °F 96% 30.00 in 10.0 mi North 8.1 mph - N/A   Clear
1:55 AM 60.3 °F 60.3 °F 100% 30.00 in 10.0 mi NE 10.4 mph - N/A   Clear
2:15 AM 61.0 °F 61.0 °F 100% 30.00 in 10.0 mi NE 11.5 mph 16.1 mph N/A   Clear
2:35 AM 60.3 °F 60.3 °F 100% 30.01 in 10.0 mi NE 10.4 mph - N/A   Scattered Clouds
2:55 AM 60.1 °F 60.1 °F 100% 30.02 in 10.0 mi NNE 10.4 mph - N/A   Mostly Cloudy
3:15 AM 60.3 °F 60.3 °F 100% 30.03 in 10.0 mi NNE 10.4 mph - N/A   Overcast
3:35 AM 60.4 °F 60.4 °F 100% 30.03 in 10.0 mi NNE 8.1 mph - N/A   Overcast
3:55 AM 61.0 °F 61.0 °F 100% 30.03 in 10.0 mi NNE 6.9 mph - N/A   Overcast
4:15 AM 61.2 °F 61.2 °F 100% 30.03 in 10.0 mi NNE 12.7 mph - N/A   Overcast
4:35 AM 61.3 °F 61.3 °F 100% 30.03 in 10.0 mi NNE 10.4 mph - N/A   Overcast
4:55 AM 61.2 °F 61.0 °F 99% 30.04 in 10.0 mi NNE 13.8 mph 17.3 mph N/A   Overcast
5:15 AM 60.4 °F 59.9 °F 98% 30.05 in 10.0 mi NNE 8.1 mph - N/A   Overcast
5:35 AM 57.9 °F 49.8 °F 74% 30.06 in 10.0 mi NE 10.4 mph - N/A   Scattered Clouds
5:55 AM 55.8 °F 46.4 °F 71% 30.07 in 10.0 mi NE 9.2 mph - N/A   Clear
6:15 AM 54.5 °F 46.0 °F 73% 30.09 in 10.0 mi NE 8.1 mph - N/A   Clear
6:35 AM 54.9 °F 45.5 °F 71% 30.10 in 10.0 mi ENE 5.8 mph - N/A   Scattered Clouds
6:55 AM 54.9 °F 46.4 °F 73% 30.10 in 10.0 mi NE 4.6 mph - N/A   Scattered Clouds
7:15 AM 55.4 °F 51.8 °F 88% 30.10 in 10.0 mi NNE 4.6 mph - N/A   Clear
7:35 AM 57.2 °F 55.4 °F 94% 30.10 in 10.0 mi NNE 8.1 mph - N/A   Clear
7:55 AM 57.9 °F 53.4 °F 85% 30.11 in 10.0 mi NNE 10.4 mph - N/A   Clear
8:15 AM 58.5 °F 49.1 °F 71% 30.11 in 10.0 mi North 13.8 mph 17.3 mph N/A   Clear
8:35 AM 59.2 °F 48.2 °F 67% 30.11 in 10.0 mi NNE 16.1 mph 19.6 mph N/A   Clear
8:55 AM 59.9 °F 47.5 °F 64% 30.11 in 10.0 mi NNE 13.8 mph - N/A   Clear
9:15 AM 61.0 °F 47.3 °F 61% 30.11 in 10.0 mi NNE 12.7 mph 19.6 mph N/A   Clear
9:35 AM 62.2 °F 46.9 °F 57% 30.12 in 10.0 mi NNE 16.1 mph 21.9 mph N/A   Clear
9:55 AM 63.0 °F 46.6 °F 55% 30.13 in 10.0 mi NNE 10.4 mph - N/A   Clear
10:15 AM 64.2 °F 46.2 °F 52% 30.13 in 10.0 mi North 11.5 mph 18.4 mph N/A   Clear
10:35 AM 64.4 °F 44.6 °F 49% 30.14 in 10.0 mi NNE 10.4 mph - N/A   Clear
10:55 AM 64.8 °F 44.8 °F 48% 30.14 in 10.0 mi NNE 11.5 mph 18.4 mph N/A   Clear
11:15 AM 65.8 °F 43.5 °F 44% 30.15 in 10.0 mi North 12.7 mph 18.4 mph N/A   Clear
11:35 AM 66.2 °F 43.5 °F 44% 30.15 in 10.0 mi North 10.4 mph 18.4 mph N/A   Clear
11:55 AM 67.1 °F 44.2 °F 44% 30.15 in 10.0 mi NE 10.4 mph 16.1 mph N/A   Scattered Clouds
12:15 PM 67.6 °F 44.4 °F 43% 30.15 in 10.0 mi North 8.1 mph 18.4 mph N/A   Scattered Clouds
12:35 PM 67.5 °F 43.9 °F 43% 30.15 in 10.0 mi North 10.4 mph - N/A   Scattered Clouds
12:55 PM 66.7 °F 43.2 °F 42% 30.15 in 10.0 mi NNE 8.1 mph - N/A   Scattered Clouds
1:15 PM 69.1 °F 43.9 °F 40% 30.15 in 10.0 mi North 12.7 mph 17.3 mph N/A   Scattered Clouds
1:35 PM 69.6 °F 43.7 °F 39% 30.15 in 10.0 mi NNE 15.0 mph 21.9 mph N/A   Scattered Clouds
1:55 PM 69.1 °F 43.3 °F 39% 30.15 in 10.0 mi North 11.5 mph 16.1 mph N/A   Mostly Cloudy
2:15 PM 68.7 °F 45.1 °F 43% 30.15 in 10.0 mi NNE 9.2 mph 16.1 mph N/A   Mostly Cloudy
2:35 PM 68.5 °F 43.7 °F 41% 30.14 in 10.0 mi North 16.1 mph - N/A   Mostly Cloudy
2:55 PM 69.8 °F 44.1 °F 39% 30.15 in 10.0 mi North 13.8 mph 18.4 mph N/A   Scattered Clouds
3:15 PM 68.5 °F 43.0 °F 40% 30.14 in 10.0 mi NNW 9.2 mph - N/A   Scattered Clouds
3:35 PM 69.1 °F 44.6 °F 41% 30.14 in 10.0 mi NNE 9.2 mph - N/A   Mostly Cloudy
3:55 PM 68.4 °F 46.2 °F 45% 30.14 in 10.0 mi NNE 4.6 mph - N/A   Overcast
4:15 PM 69.1 °F 42.3 °F 38% 30.13 in 10.0 mi North 11.5 mph - N/A   Scattered Clouds
4:35 PM 68.7 °F 44.1 °F 41% 30.13 in 10.0 mi North 6.9 mph - N/A   Mostly Cloudy
4:55 PM 69.8 °F 44.4 °F 40% 30.13 in 10.0 mi NNW 6.9 mph - N/A   Mostly Cloudy
5:15 PM 70.3 °F 43.9 °F 38% 30.13 in 10.0 mi North 6.9 mph - N/A   Scattered Clouds
5:35 PM 70.2 °F 44.2 °F 39% 30.13 in 10.0 mi North 10.4 mph - N/A   Scattered Clouds
5:55 PM 68.9 °F 45.3 °F 43% 30.13 in 10.0 mi North 5.8 mph - N/A   Clear
7:15 PM 67.1 °F 46.0 °F 47% 30.13 in 10.0 mi NNW 3.5 mph - N/A   Clear
7:35 PM 66.4 °F 46.4 °F 49% 30.12 in 10.0 mi NNW 3.5 mph - N/A   Clear
7:55 PM 65.3 °F 46.8 °F 51% 30.12 in 10.0 mi NW 3.5 mph - N/A   Clear
8:15 PM 64.2 °F 46.8 °F 53% 30.12 in 10.0 mi NNW 4.6 mph - N/A   Clear
8:35 PM 63.5 °F 46.8 °F 54% 30.12 in 10.0 mi NNW 4.6 mph - N/A   Clear
8:55 PM 62.6 °F 46.8 °F 56% 30.13 in 10.0 mi NNW 5.8 mph - N/A   Scattered Clouds
9:15 PM 61.9 °F 47.3 °F 59% 30.14 in 10.0 mi NW 4.6 mph - N/A   Clear
9:35 PM 61.9 °F 47.3 °F 59% 30.14 in 10.0 mi NW 5.8 mph - N/A   Clear
9:55 PM 61.5 °F 47.1 °F 59% 30.14 in 10.0 mi NW 4.6 mph - N/A   Clear
10:15 PM 61.7 °F 47.3 °F 59% 30.15 in 10.0 mi NW 5.8 mph - N/A   Mostly Cloudy
10:35 PM 61.2 °F 47.5 °F 61% 30.15 in 10.0 mi NNW 5.8 mph - N/A   Overcast
10:55 PM 59.9 °F 48.2 °F 65% 30.16 in 10.0 mi North 4.6 mph - N/A   Overcast
11:15 PM 59.9 °F 48.4 °F 66% 30.16 in 10.0 mi North 4.6 mph - N/A   Mostly Cloudy
11:35 PM 59.2 °F 48.6 °F 68% 30.16 in 10.0 mi North 4.6 mph - N/A   Mostly Cloudy
11:55 PM 59.0 °F 49.1 °F 70% 30.17 in 10.0 mi North 4.6 mph - N/A   Clear